Location: Unspecified
(0.0000°N, 0.0000°E)
Time: 10:14:40
(UTC+00:00)

SR - All Passes

Search period start: 16 June 2025 00:00
Search period end: 26 June 2025 00:00
Orbit: 570 x 855 km, 66.7° (Epoch: 15 June)

Date Brightness Start Highest point End Pass type
(mag) Time Alt. Az. Time Alt. Az. Time Alt. Az.
16 Jun - 02:54:34 10° ENE 02:54:43 10° ENE 02:54:51 10° ENE visible
16 Jun - 04:32:24 10° NW 04:36:12 29° WSW 04:39:52 10° S visible
16 Jun - 15:12:51 10° S 15:17:50 34° ESE 15:22:58 10° NE daylight
16 Jun - 16:55:38 10° WSW 16:59:23 18° WNW 17:03:12 10° NNW daylight
17 Jun - 03:37:39 10° NNW 03:42:01 73° ENE 03:46:12 10° SSE night (unlit)
17 Jun - 14:21:28 10° SE 14:23:37 12° ESE 14:25:48 10° E daylight
17 Jun - 15:59:43 10° SW 16:05:05 49° WNW 16:10:37 10° N daylight
18 Jun - 02:44:32 10° NNE 02:47:47 20° ENE 02:50:55 10° ESE night (unlit)
18 Jun - 04:26:44 10° WNW 04:29:09 15° WSW 04:31:32 10° SW night (unlit)
18 Jun - 15:05:22 10° S 15:10:51 61° ESE 15:16:31 10° NNE daylight
19 Jun - 03:30:46 10° NNW 03:34:59 52° WSW 03:39:04 10° S night (unlit)
19 Jun - 14:12:23 10° SSE 14:16:38 22° ESE 14:21:01 10° ENE daylight
19 Jun - 15:53:26 10° SW 15:58:09 28° WNW 16:03:00 10° NNW daylight
20 Jun - 02:36:42 10° N 02:40:48 40° ENE 02:44:45 10° SE night (unlit)
20 Jun - 14:58:19 10° SSW 15:03:52 76° WNW 15:09:38 10° NNE daylight
21 Jun - 01:44:53 10° NE 01:46:30 12° ENE 01:48:06 10° E night (unlit)
21 Jun - 03:24:24 10° NW 03:27:57 25° WSW 03:31:24 10° SSW night (unlit)
21 Jun - 14:04:29 10° S 14:09:40 39° ESE 14:14:59 10° NE daylight
21 Jun - 15:47:54 10° WSW 15:51:14 16° WNW 15:54:37 10° NNW daylight
22 Jun - 02:29:26 10° NNW 02:33:46 87° ENE 02:37:58 10° SSE night (unlit)
22 Jun - 13:12:31 10° SE 13:15:26 14° ESE 13:18:24 10° ENE daylight
22 Jun - 14:51:38 10° SW 14:56:55 43° WNW 15:02:21 10° N daylight
23 Jun - 01:36:04 10° NNE 01:39:32 23° ENE 01:42:55 10° ESE night (unlit)
23 Jun - 03:19:08 10° W 03:20:55 12° WSW 03:22:41 10° SW night (unlit)
23 Jun - 13:57:06 10° SSW 14:02:40 70° ESE 14:08:25 10° NNE daylight
24 Jun - 02:22:38 10° NW 02:26:44 43° WSW 02:30:42 10° S night (unlit)
24 Jun - 13:03:54 10° SSE 13:08:27 26° ESE 13:13:08 10° NE daylight
24 Jun - 14:45:27 10° WSW 14:49:59 25° WNW 14:54:35 10° NNW daylight
25 Jun - 01:28:22 10° N 01:32:32 48° ENE 01:36:34 10° SE night (unlit)
25 Jun - 13:50:07 10° SSW 13:55:41 67° WNW 14:01:26 10° NNE daylight
